Time,TemperatureF,DewpointF,PressureIn,WindDirection,WindDirectionDegrees,WindSpeedMPH,WindSpeedGustMPH,Humidity,HourlyPrecipIn,Conditions,Clouds,dailyrainin,SoftwareType,DateUTC
2013-01-30 00:00:00,42.3,42.8,30.03,WNW,292,3.0,3.0,98,0.00,,,0.00,WeatherTracker,2013-01-30 08:00:00,
2013-01-30 00:05:00,42.3,42.8,30.03,SSE,157,3.0,3.0,98,0.00,,,0.00,WeatherTracker,2013-01-30 08:05:00,
2013-01-30 00:10:00,42.3,42.8,30.03,WNW,292,4.0,6.0,98,0.00,,,0.00,WeatherTracker,2013-01-30 08:10:00,
2013-01-30 00:15:00,42.3,42.8,30.03,WNW,292,4.0,6.0,98,0.00,,,0.00,WeatherTracker,2013-01-30 08:15:00,
2013-01-30 00:20:00,42.3,42.8,30.03,WNW,292,4.0,4.0,98,0.00,,,0.00,WeatherTracker,2013-01-30 08:20:00,
2013-01-30 00:25:00,42.3,42.8,30.03,NNW,337,4.0,4.0,98,0.00,,,0.00,WeatherTracker,2013-01-30 08:25:00,
2013-01-30 00:35:00,42.3,42.8,30.03,WNW,292,2.0,4.0,98,0.00,,,0.00,WeatherTracker,2013-01-30 08:35:00,
2013-01-30 00:40:00,42.3,42.8,30.03,NNE,22,3.0,3.0,98,0.00,,,0.00,WeatherTracker,2013-01-30 08:40:00,
2013-01-30 00:45:00,42.3,42.8,30.03,NW,315,4.0,4.0,98,0.00,,,0.00,WeatherTracker,2013-01-30 08:45:00,
2013-01-30 00:50:00,42.3,42.8,30.03,WNW,292,3.0,6.0,98,0.00,,,0.00,WeatherTracker,2013-01-30 08:50:00,
2013-01-30 00:55:00,42.3,42.8,30.03,NW,315,4.0,4.0,98,0.00,,,0.00,WeatherTracker,2013-01-30 08:55:00,
2013-01-30 01:00:00,42.3,42.8,30.03,NW,315,4.0,4.0,98,0.00,,,0.00,WeatherTracker,2013-01-30 09:00:00,
2013-01-30 01:05:00,42.3,42.8,30.03,WNW,292,3.0,4.0,98,0.00,,,0.00,WeatherTracker,2013-01-30 09:05:00,
2013-01-30 01:10:00,42.3,42.8,30.03,WNW,292,4.0,4.0,98,0.00,,,0.00,WeatherTracker,2013-01-30 09:10:00,
2013-01-30 01:15:00,42.3,42.8,30.03,NNW,337,2.0,3.0,98,0.00,,,0.00,WeatherTracker,2013-01-30 09:15:00,
2013-01-30 01:20:00,42.3,42.8,30.03,NNW,337,3.0,4.0,98,0.00,,,0.00,WeatherTracker,2013-01-30 09:20:00,
2013-01-30 01:25:00,42.3,42.8,30.03,WNW,292,4.0,4.0,98,0.00,,,0.00,WeatherTracker,2013-01-30 09:25:00,
2013-01-30 01:30:00,42.3,42.8,30.03,WSW,247,3.0,5.0,98,0.00,,,0.00,WeatherTracker,2013-01-30 09:30:00,
2013-01-30 01:35:00,42.3,42.8,30.03,NNW,337,3.0,6.0,98,0.00,,,0.00,WeatherTracker,2013-01-30 09:35:00,
2013-01-30 01:40:00,42.3,42.8,30.03,WNW,292,5.0,6.0,98,0.00,,,0.00,WeatherTracker,2013-01-30 09:40:00,
2013-01-30 01:45:00,42.3,42.8,30.03,NW,315,3.0,3.0,98,0.00,,,0.00,WeatherTracker,2013-01-30 09:45:00,
2013-01-30 01:50:00,42.3,42.8,30.03,NNW,337,3.0,3.0,98,0.00,,,0.00,WeatherTracker,2013-01-30 09:50:00,
2013-01-30 01:55:00,42.3,42.8,30.03,WNW,292,4.0,6.0,98,0.00,,,0.00,WeatherTracker,2013-01-30 09:55:00,
2013-01-30 02:00:00,42.3,42.8,30.03,WSW,247,5.0,5.0,98,0.00,,,0.00,WeatherTracker,2013-01-30 10:00:00,
2013-01-30 02:10:00,42.3,42.8,30.03,NW,315,2.0,2.0,98,0.00,,,0.00,WeatherTracker,2013-01-30 10:10:00,
2013-01-30 02:15:00,42.3,42.8,30.03,NW,315,2.0,2.0,98,0.00,,,0.00,WeatherTracker,2013-01-30 10:15:00,
2013-01-30 02:25:00,42.3,42.8,30.03,West,270,4.0,4.0,98,0.00,,,0.00,WeatherTracker,2013-01-30 10:25:00,
2013-01-30 02:30:00,42.3,42.8,30.03,SW,225,2.0,2.0,98,0.00,,,0.00,WeatherTracker,2013-01-30 10:30:00,
2013-01-30 02:35:00,42.1,42.8,30.00,WNW,292,4.0,4.0,98,0.00,,,0.00,WeatherTracker,2013-01-30 10:35:00,
2013-01-30 02:40:00,42.1,42.8,30.00,NNW,337,3.0,3.0,98,0.00,,,0.00,WeatherTracker,2013-01-30 10:40:00,
2013-01-30 02:45:00,42.1,42.8,30.00,NE,45,3.0,4.0,98,0.00,,,0.00,WeatherTracker,2013-01-30 10:45:00,
2013-01-30 02:55:00,42.1,42.8,30.03,North,0,3.0,3.0,98,0.00,,,0.00,WeatherTracker,2013-01-30 10:55:00,
2013-01-30 03:00:00,42.1,42.8,30.03,North,0,3.0,3.0,98,0.00,,,0.00,WeatherTracker,2013-01-30 11:00:00,
2013-01-30 03:05:00,42.1,42.8,30.03,North,0,3.0,3.0,98,0.00,,,0.00,WeatherTracker,2013-01-30 11:05:00,
2013-01-30 03:10:00,42.1,42.8,30.03,West,270,6.0,6.0,98,0.00,,,0.00,WeatherTracker,2013-01-30 11:10:00,
2013-01-30 03:15:00,42.1,42.8,30.03,West,270,6.0,6.0,98,0.00,,,0.00,WeatherTracker,2013-01-30 11:15:00,
2013-01-30 03:20:00,42.1,42.8,30.03,NNW,337,4.0,6.0,98,0.00,,,0.00,WeatherTracker,2013-01-30 11:20:00,
2013-01-30 03:25:00,42.1,42.8,30.03,WNW,292,5.0,5.0,98,0.00,,,0.00,WeatherTracker,2013-01-30 11:25:00,
2013-01-30 03:30:00,42.1,42.8,30.03,NNW,337,4.0,6.0,98,0.00,,,0.00,WeatherTracker,2013-01-30 11:30:00,
2013-01-30 03:35:00,42.1,42.8,30.03,WNW,292,3.0,3.0,98,0.00,,,0.00,WeatherTracker,2013-01-30 11:35:00,
2013-01-30 03:40:00,42.1,42.8,30.03,WNW,292,4.0,5.0,98,0.05,,,0.05,WeatherTracker,2013-01-30 11:40:00,
2013-01-30 03:50:00,42.1,42.8,30.03,WSW,247,5.0,5.0,98,0.05,,,0.05,WeatherTracker,2013-01-30 11:50:00,
2013-01-30 03:55:00,42.1,42.8,30.03,WNW,292,6.0,7.0,98,0.05,,,0.05,WeatherTracker,2013-01-30 11:55:00,
2013-01-30 04:00:00,42.1,42.8,30.03,WNW,292,4.0,4.0,98,0.05,,,0.05,WeatherTracker,2013-01-30 12:00:00,
2013-01-30 04:05:00,42.1,42.8,30.03,NW,315,4.0,6.0,98,0.05,,,0.05,WeatherTracker,2013-01-30 12:05:00,
2013-01-30 04:10:00,42.1,42.8,30.03,NW,315,4.0,6.0,98,0.05,,,0.05,WeatherTracker,2013-01-30 12:10:00,
2013-01-30 04:15:00,42.1,42.8,30.03,NNW,337,3.0,4.0,98,0.05,,,0.05,WeatherTracker,2013-01-30 12:15:00,
2013-01-30 04:20:00,42.1,42.8,30.03,WNW,292,4.0,5.0,98,0.05,,,0.05,WeatherTracker,2013-01-30 12:20:00,
2013-01-30 04:25:00,42.1,42.8,30.03,WNW,292,4.0,5.0,98,0.05,,,0.05,WeatherTracker,2013-01-30 12:25:00,
2013-01-30 04:30:00,42.1,42.8,30.03,WNW,292,4.0,5.0,98,0.05,,,0.05,WeatherTracker,2013-01-30 12:30:00,
2013-01-30 04:35:00,42.1,42.8,30.03,WNW,292,4.0,5.0,98,0.05,,,0.05,WeatherTracker,2013-01-30 12:35:00,
2013-01-30 04:40:00,42.1,42.8,30.03,WNW,292,4.0,4.0,98,0.00,,,0.05,WeatherTracker,2013-01-30 12:40:00,
2013-01-30 04:45:00,42.1,42.8,30.03,WNW,292,4.0,4.0,98,0.00,,,0.05,WeatherTracker,2013-01-30 12:45:00,
2013-01-30 04:50:00,42.1,42.8,30.03,WSW,247,3.0,3.0,98,0.00,,,0.05,WeatherTracker,2013-01-30 12:50:00,
2013-01-30 04:55:00,42.1,42.8,30.03,WSW,247,3.0,3.0,98,0.00,,,0.05,WeatherTracker,2013-01-30 12:55:00,
2013-01-30 05:00:00,42.1,42.8,30.03,WSW,247,3.0,3.0,98,0.00,,,0.05,WeatherTracker,2013-01-30 13:00:00,
2013-01-30 05:05:00,42.1,42.8,30.03,WSW,247,3.0,3.0,98,0.00,,,0.05,WeatherTracker,2013-01-30 13:05:00,
2013-01-30 05:10:00,42.1,42.8,30.03,WSW,247,3.0,3.0,98,0.00,,,0.05,WeatherTracker,2013-01-30 13:10:00,
2013-01-30 05:15:00,42.1,42.8,30.03,WSW,247,3.0,3.0,98,0.00,,,0.05,WeatherTracker,2013-01-30 13:15:00,
2013-01-30 05:20:00,42.1,42.8,30.03,NNE,22,3.0,6.0,98,0.00,,,0.05,WeatherTracker,2013-01-30 13:20:00,
2013-01-30 05:25:00,42.1,42.8,30.03,NNE,22,3.0,6.0,98,0.00,,,0.05,WeatherTracker,2013-01-30 13:25:00,
2013-01-30 05:30:00,42.1,42.8,30.03,WNW,292,4.0,4.0,98,0.00,,,0.05,WeatherTracker,2013-01-30 13:30:00,
2013-01-30 05:35:00,42.1,42.8,30.03,WNW,292,4.0,4.0,98,0.00,,,0.05,WeatherTracker,2013-01-30 13:35:00,
2013-01-30 05:40:00,42.1,42.8,30.03,NNW,337,4.0,4.0,98,0.00,,,0.05,WeatherTracker,2013-01-30 13:40:00,
2013-01-30 05:45:00,42.1,42.8,30.03,North,0,4.0,4.0,98,0.00,,,0.05,WeatherTracker,2013-01-30 13:45:00,
2013-01-30 05:50:00,42.1,42.8,30.03,NNE,22,4.0,4.0,98,0.00,,,0.05,WeatherTracker,2013-01-30 13:50:00,
2013-01-30 05:55:00,42.1,42.8,30.03,NNE,22,4.0,4.0,98,0.00,,,0.05,WeatherTracker,2013-01-30 13:55:00,
2013-01-30 06:00:00,42.1,42.8,30.03,NNE,22,4.0,4.0,98,0.00,,,0.05,WeatherTracker,2013-01-30 14:00:00,
2013-01-30 06:05:00,42.1,42.8,30.03,ENE,67,5.0,5.0,98,0.00,,,0.05,WeatherTracker,2013-01-30 14:05:00,
2013-01-30 06:10:00,42.1,42.8,30.03,WNW,292,3.0,7.0,98,0.00,,,0.05,WeatherTracker,2013-01-30 14:10:00,
2013-01-30 06:15:00,42.1,42.8,30.03,WNW,292,3.0,4.0,98,0.00,,,0.05,WeatherTracker,2013-01-30 14:15:00,
2013-01-30 06:20:00,42.1,42.8,30.03,WNW,292,4.0,4.0,98,0.00,,,0.05,WeatherTracker,2013-01-30 14:20:00,
2013-01-30 06:25:00,42.3,42.8,30.03,WNW,292,4.0,5.0,98,0.00,,,0.05,WeatherTracker,2013-01-30 14:25:00,
2013-01-30 06:30:00,42.3,42.8,30.03,WNW,292,4.0,5.0,98,0.00,,,0.05,WeatherTracker,2013-01-30 14:30:00,
2013-01-30 06:35:00,42.3,42.8,30.03,WNW,292,4.0,5.0,98,0.00,,,0.05,WeatherTracker,2013-01-30 14:35:00,
2013-01-30 06:40:00,42.3,42.8,30.03,WNW,292,4.0,5.0,98,0.00,,,0.05,WeatherTracker,2013-01-30 14:40:00,
2013-01-30 06:45:00,42.3,42.8,30.03,ENE,67,3.0,3.0,98,0.00,,,0.05,WeatherTracker,2013-01-30 14:45:00,
2013-01-30 06:50:00,42.3,42.8,30.03,ENE,67,3.0,3.0,98,0.00,,,0.05,WeatherTracker,2013-01-30 14:50:00,
2013-01-30 06:55:00,42.3,42.8,30.03,ENE,67,3.0,3.0,98,0.00,,,0.05,WeatherTracker,2013-01-30 14:55:00,
2013-01-30 07:00:00,42.3,42.8,30.03,NNW,337,6.0,6.0,98,0.00,,,0.05,WeatherTracker,2013-01-30 15:00:00,
2013-01-30 07:05:00,42.3,42.8,30.03,NNW,337,6.0,6.0,98,0.00,,,0.05,WeatherTracker,2013-01-30 15:05:00,
2013-01-30 07:10:00,42.3,42.8,30.03,NW,315,6.0,6.0,98,0.00,,,0.05,WeatherTracker,2013-01-30 15:10:00,
2013-01-30 07:15:00,42.3,42.8,30.03,NW,315,6.0,6.0,98,0.00,,,0.05,WeatherTracker,2013-01-30 15:15:00,
2013-01-30 07:20:00,42.3,42.8,30.03,NNW,337,2.0,3.0,98,0.00,,,0.05,WeatherTracker,2013-01-30 15:20:00,
2013-01-30 07:25:00,42.3,42.8,30.03,WNW,292,4.0,4.0,98,0.00,,,0.05,WeatherTracker,2013-01-30 15:25:00,
2013-01-30 07:30:00,42.3,42.8,30.03,WNW,292,4.0,4.0,98,0.00,,,0.05,WeatherTracker,2013-01-30 15:30:00,
2013-01-30 07:35:00,42.3,42.8,30.03,NNW,337,3.0,4.0,98,0.00,,,0.05,WeatherTracker,2013-01-30 15:35:00,
2013-01-30 07:45:00,42.3,42.8,30.03,NNW,337,5.0,5.0,98,0.04,,,0.09,WeatherTracker,2013-01-30 15:45:00,
2013-01-30 07:50:00,42.3,42.8,30.03,NNW,337,5.0,5.0,98,0.04,,,0.09,WeatherTracker,2013-01-30 15:50:00,
2013-01-30 07:55:00,42.4,42.8,30.03,NW,315,6.0,6.0,98,0.04,,,0.09,WeatherTracker,2013-01-30 15:55:00,
2013-01-30 08:00:00,42.4,42.8,30.03,WNW,292,3.0,3.0,98,0.04,,,0.09,WeatherTracker,2013-01-30 16:00:00,
2013-01-30 08:05:00,42.4,42.8,30.06,WNW,292,3.0,3.0,98,0.04,,,0.09,WeatherTracker,2013-01-30 16:05:00,
2013-01-30 08:10:00,42.4,42.8,30.06,NNW,337,4.0,4.0,98,0.04,,,0.09,WeatherTracker,2013-01-30 16:10:00,
2013-01-30 08:15:00,42.4,42.8,30.06,WNW,292,4.0,4.0,98,0.04,,,0.09,WeatherTracker,2013-01-30 16:15:00,
2013-01-30 08:20:00,42.6,42.8,30.03,WSW,247,4.0,10.0,98,0.04,,,0.09,WeatherTracker,2013-01-30 16:20:00,
2013-01-30 08:25:00,42.6,42.8,30.03,WSW,247,3.0,3.0,98,0.04,,,0.09,WeatherTracker,2013-01-30 16:25:00,
2013-01-30 08:30:00,42.6,42.8,30.03,WSW,247,6.0,6.0,98,0.04,,,0.09,WeatherTracker,2013-01-30 16:30:00,
2013-01-30 08:35:00,42.8,42.8,30.00,NNE,22,4.0,4.0,98,0.04,,,0.09,WeatherTracker,2013-01-30 16:35:00,
2013-01-30 08:40:00,42.8,42.8,30.00,NNE,22,4.0,4.0,98,0.04,,,0.09,WeatherTracker,2013-01-30 16:40:00,
2013-01-30 08:50:00,43.0,42.8,30.03,NNW,337,4.0,4.0,98,0.00,,,0.09,WeatherTracker,2013-01-30 16:50:00,
2013-01-30 08:55:00,43.0,42.8,30.03,WNW,292,4.0,4.0,98,0.00,,,0.09,WeatherTracker,2013-01-30 16:55:00,
2013-01-30 09:00:00,43.2,42.8,30.03,WNW,292,4.0,4.0,98,0.00,,,0.09,WeatherTracker,2013-01-30 17:00:00,
2013-01-30 09:05:00,43.3,42.8,30.03,NNE,22,4.0,4.0,98,0.00,,,0.09,WeatherTracker,2013-01-30 17:05:00,
2013-01-30 09:10:00,43.3,42.8,30.03,SSW,202,4.0,6.0,98,0.00,,,0.09,WeatherTracker,2013-01-30 17:10:00,
2013-01-30 09:15:00,43.3,42.8,30.03,SSW,202,4.0,6.0,98,0.00,,,0.09,WeatherTracker,2013-01-30 17:15:00,
2013-01-30 09:20:00,43.5,42.8,30.03,NNW,337,3.0,3.0,98,0.00,,,0.09,WeatherTracker,2013-01-30 17:20:00,
2013-01-30 09:25:00,43.7,44.6,30.03,WSW,247,2.0,6.0,98,0.00,,,0.09,WeatherTracker,2013-01-30 17:25:00,
2013-01-30 09:30:00,43.7,44.6,30.03,WSW,247,2.0,6.0,98,0.00,,,0.09,WeatherTracker,2013-01-30 17:30:00,
2013-01-30 09:35:00,43.7,44.6,30.03,WSW,247,4.0,4.0,98,0.00,,,0.09,WeatherTracker,2013-01-30 17:35:00,
2013-01-30 09:40:00,43.7,44.6,30.03,WNW,292,3.0,3.0,98,0.00,,,0.09,WeatherTracker,2013-01-30 17:40:00,
2013-01-30 09:45:00,43.7,44.6,30.03,NNW,337,4.0,6.0,98,0.00,,,0.09,WeatherTracker,2013-01-30 17:45:00,
2013-01-30 09:50:00,43.9,44.6,30.03,NW,315,5.0,5.0,98,0.00,,,0.09,WeatherTracker,2013-01-30 17:50:00,
2013-01-30 09:55:00,44.1,44.6,30.03,NW,315,4.0,5.0,98,0.00,,,0.09,WeatherTracker,2013-01-30 17:55:00,
2013-01-30 10:00:00,44.2,44.6,30.03,WNW,292,5.0,5.0,98,0.00,,,0.09,WeatherTracker,2013-01-30 18:00:00,
2013-01-30 10:05:00,44.4,44.6,30.00,NNW,337,3.0,3.0,98,0.00,,,0.09,WeatherTracker,2013-01-30 18:05:00,
2013-01-30 10:10:00,44.6,44.6,30.00,NW,315,3.0,7.0,98,0.00,,,0.09,WeatherTracker,2013-01-30 18:10:00,
2013-01-30 10:15:00,44.6,44.6,30.00,WNW,292,5.0,5.0,98,0.00,,,0.09,WeatherTracker,2013-01-30 18:15:00,
2013-01-30 10:20:00,44.6,44.6,30.03,WNW,292,5.0,5.0,98,0.00,,,0.09,WeatherTracker,2013-01-30 18:20:00,
2013-01-30 10:25:00,44.6,44.6,30.03,WSW,247,4.0,6.0,98,0.00,,,0.09,WeatherTracker,2013-01-30 18:25:00,
2013-01-30 10:35:00,44.8,44.6,30.03,NW,315,3.0,3.0,98,0.00,,,0.09,WeatherTracker,2013-01-30 18:35:00,
2013-01-30 10:40:00,45.0,44.6,30.03,NNW,337,2.0,2.0,98,0.00,,,0.09,WeatherTracker,2013-01-30 18:40:00,
2013-01-30 10:45:00,44.8,44.6,30.03,NNW,337,2.0,2.0,98,0.00,,,0.09,WeatherTracker,2013-01-30 18:45:00,
2013-01-30 10:50:00,45.0,44.6,30.03,SSW,202,4.0,4.0,98,0.00,,,0.09,WeatherTracker,2013-01-30 18:50:00,
2013-01-30 11:00:00,45.0,44.6,30.03,WNW,292,3.0,5.0,98,0.00,,,0.09,WeatherTracker,2013-01-30 19:00:00,
2013-01-30 11:05:00,45.1,44.6,30.03,WNW,292,3.0,5.0,98,0.00,,,0.09,WeatherTracker,2013-01-30 19:05:00,
2013-01-30 11:10:00,45.3,44.6,30.03,SSW,202,5.0,5.0,98,0.00,,,0.09,WeatherTracker,2013-01-30 19:10:00,
2013-01-30 11:15:00,45.7,46.4,30.03,NNW,337,4.0,4.0,98,0.00,,,0.09,WeatherTracker,2013-01-30 19:15:00,
2013-01-30 11:20:00,45.9,46.4,30.00,NNW,337,4.0,4.0,98,0.00,,,0.09,WeatherTracker,2013-01-30 19:20:00,
2013-01-30 11:25:00,45.9,46.4,30.00,WSW,247,4.0,4.0,98,0.00,,,0.09,WeatherTracker,2013-01-30 19:25:00,
2013-01-30 11:30:00,46.0,46.4,30.00,SSE,157,4.0,4.0,98,0.00,,,0.09,WeatherTracker,2013-01-30 19:30:00,
2013-01-30 11:35:00,46.0,46.4,30.03,SSE,157,4.0,4.0,98,0.00,,,0.09,WeatherTracker,2013-01-30 19:35:00,
2013-01-30 11:40:00,46.0,46.4,30.03,SSE,157,4.0,4.0,98,0.00,,,0.09,WeatherTracker,2013-01-30 19:40:00,
2013-01-30 11:45:00,46.2,46.4,30.03,SSE,157,4.0,4.0,98,0.00,,,0.09,WeatherTracker,2013-01-30 19:45:00,
2013-01-30 11:50:00,46.4,46.4,30.00,SSE,157,4.0,4.0,98,0.00,,,0.09,WeatherTracker,2013-01-30 19:50:00,
2013-01-30 11:55:00,46.6,46.4,30.00,WNW,292,4.0,4.0,98,0.00,,,0.09,WeatherTracker,2013-01-30 19:55:00,
2013-01-30 12:00:00,46.8,46.4,30.00,WNW,292,4.0,4.0,98,0.00,,,0.09,WeatherTracker,2013-01-30 20:00:00,
2013-01-30 12:05:00,47.1,48.2,30.03,WNW,292,4.0,4.0,98,0.00,,,0.09,WeatherTracker,2013-01-30 20:05:00,
2013-01-30 12:10:00,47.1,48.2,30.03,SSE,157,4.0,4.0,98,0.00,,,0.09,WeatherTracker,2013-01-30 20:10:00,
2013-01-30 12:15:00,47.1,48.2,30.03,SSE,157,4.0,4.0,98,0.00,,,0.09,WeatherTracker,2013-01-30 20:15:00,
2013-01-30 12:20:00,47.5,48.2,30.03,SSE,157,4.0,4.0,98,0.00,,,0.09,WeatherTracker,2013-01-30 20:20:00,
2013-01-30 12:25:00,47.7,48.2,30.03,SSE,157,4.0,4.0,98,0.00,,,0.09,WeatherTracker,2013-01-30 20:25:00,
2013-01-30 12:30:00,47.5,48.2,30.03,SSE,157,4.0,4.0,96,0.00,,,0.09,WeatherTracker,2013-01-30 20:30:00,
2013-01-30 12:35:00,47.7,48.2,30.03,NW,315,4.0,8.0,96,0.00,,,0.09,WeatherTracker,2013-01-30 20:35:00,
2013-01-30 12:40:00,47.7,48.2,30.03,NW,315,7.0,7.0,96,0.00,,,0.09,WeatherTracker,2013-01-30 20:40:00,
2013-01-30 12:45:00,48.0,48.2,30.03,NW,315,7.0,7.0,96,0.00,,,0.09,WeatherTracker,2013-01-30 20:45:00,
2013-01-30 12:50:00,48.4,46.4,30.03,NW,315,7.0,7.0,94,0.00,,,0.09,WeatherTracker,2013-01-30 20:50:00,
2013-01-30 12:55:00,48.6,48.2,30.03,NW,315,7.0,7.0,94,0.00,,,0.09,WeatherTracker,2013-01-30 20:55:00,
2013-01-30 13:00:00,48.4,46.4,30.03,NW,315,7.0,7.0,93,0.00,,,0.09,WeatherTracker,2013-01-30 21:00:00,
2013-01-30 13:05:00,48.4,46.4,30.03,NW,315,7.0,7.0,93,0.00,,,0.09,WeatherTracker,2013-01-30 21:05:00,
2013-01-30 13:10:00,48.7,48.2,30.03,NW,315,7.0,7.0,94,0.00,,,0.09,WeatherTracker,2013-01-30 21:10:00,
2013-01-30 13:15:00,49.1,48.2,30.03,NW,315,7.0,7.0,93,0.00,,,0.09,WeatherTracker,2013-01-30 21:15:00,
2013-01-30 13:20:00,49.1,48.2,30.03,NW,315,7.0,7.0,92,0.00,,,0.09,WeatherTracker,2013-01-30 21:20:00,
2013-01-30 13:25:00,48.9,46.4,30.03,NW,315,7.0,7.0,92,0.00,,,0.09,WeatherTracker,2013-01-30 21:25:00,
2013-01-30 13:30:00,48.7,46.4,30.03,NW,315,7.0,7.0,92,0.00,,,0.09,WeatherTracker,2013-01-30 21:30:00,
2013-01-30 13:35:00,48.7,48.2,30.00,NW,315,7.0,7.0,93,0.00,,,0.09,WeatherTracker,2013-01-30 21:35:00,
2013-01-30 13:40:00,48.7,46.4,30.00,NW,315,7.0,7.0,92,0.00,,,0.09,WeatherTracker,2013-01-30 21:40:00,
2013-01-30 13:45:00,48.6,46.4,30.00,WNW,292,5.0,6.0,92,0.00,,,0.09,WeatherTracker,2013-01-30 21:45:00,
2013-01-30 13:50:00,48.7,48.2,30.03,WNW,292,5.0,6.0,93,0.00,,,0.09,WeatherTracker,2013-01-30 21:50:00,
2013-01-30 13:55:00,48.7,46.4,30.03,WNW,292,5.0,6.0,92,0.00,,,0.09,WeatherTracker,2013-01-30 21:55:00,
2013-01-30 14:00:00,48.7,46.4,30.03,WNW,292,5.0,6.0,92,0.00,,,0.09,WeatherTracker,2013-01-30 22:00:00,
2013-01-30 14:05:00,48.7,46.4,30.00,WNW,292,5.0,6.0,92,0.00,,,0.09,WeatherTracker,2013-01-30 22:05:00,
2013-01-30 14:10:00,48.7,46.4,30.00,NNW,337,4.0,6.0,92,0.00,,,0.09,WeatherTracker,2013-01-30 22:10:00,
2013-01-30 14:15:00,48.7,46.4,30.00,WNW,292,3.0,8.0,92,0.00,,,0.09,WeatherTracker,2013-01-30 22:15:00,
2013-01-30 14:20:00,48.7,46.4,30.00,West,270,3.0,5.0,92,0.00,,,0.09,WeatherTracker,2013-01-30 22:20:00,
2013-01-30 14:30:00,48.6,48.2,30.00,West,270,3.0,5.0,93,0.00,,,0.09,WeatherTracker,2013-01-30 22:30:00,
2013-01-30 14:35:00,48.7,48.2,30.00,West,270,3.0,5.0,93,0.00,,,0.09,WeatherTracker,2013-01-30 22:35:00,
2013-01-30 14:40:00,48.7,48.2,30.00,West,270,3.0,5.0,94,0.00,,,0.09,WeatherTracker,2013-01-30 22:40:00,
2013-01-30 14:45:00,48.9,48.2,30.00,West,270,3.0,5.0,94,0.00,,,0.09,WeatherTracker,2013-01-30 22:45:00,
2013-01-30 14:50:00,49.1,48.2,29.97,West,270,3.0,5.0,94,0.00,,,0.09,WeatherTracker,2013-01-30 22:50:00,
2013-01-30 14:55:00,49.1,48.2,29.97,West,270,3.0,5.0,94,0.00,,,0.09,WeatherTracker,2013-01-30 22:55:00,
2013-01-30 15:00:00,48.9,48.2,29.97,West,270,3.0,5.0,93,0.00,,,0.09,WeatherTracker,2013-01-30 23:00:00,
2013-01-30 15:05:00,48.7,48.2,30.00,West,270,3.0,5.0,93,0.00,,,0.09,WeatherTracker,2013-01-30 23:05:00,
2013-01-30 15:10:00,48.7,48.2,30.00,NNW,337,2.0,6.0,93,0.00,,,0.09,WeatherTracker,2013-01-30 23:10:00,
2013-01-30 15:15:00,48.6,48.2,30.00,NNW,337,2.0,6.0,94,0.00,,,0.09,WeatherTracker,2013-01-30 23:15:00,
2013-01-30 15:25:00,48.6,48.2,30.00,NNW,337,2.0,6.0,94,0.00,,,0.09,WeatherTracker,2013-01-30 23:25:00,
2013-01-30 15:30:00,48.7,48.2,30.00,NNW,337,2.0,6.0,95,0.00,,,0.09,WeatherTracker,2013-01-30 23:30:00,
2013-01-30 15:35:00,48.6,48.2,30.00,WSW,247,3.0,4.0,95,0.00,,,0.09,WeatherTracker,2013-01-30 23:35:00,
2013-01-30 15:40:00,48.6,48.2,30.00,WSW,247,3.0,4.0,95,0.00,,,0.09,WeatherTracker,2013-01-30 23:40:00,
2013-01-30 15:45:00,48.4,48.2,30.00,West,270,4.0,6.0,95,0.00,,,0.09,WeatherTracker,2013-01-30 23:45:00,
2013-01-30 15:50:00,48.4,48.2,29.97,NNE,22,2.0,2.0,95,0.00,,,0.09,WeatherTracker,2013-01-30 23:50:00,
2013-01-30 15:55:00,48.6,48.2,29.97,WSW,247,2.0,3.0,95,0.00,,,0.09,WeatherTracker,2013-01-30 23:55:00,
2013-01-30 16:00:00,48.7,48.2,29.97,WSW,247,2.0,3.0,95,0.00,,,0.09,WeatherTracker,2013-01-31 00:00:00,
2013-01-30 16:05:00,48.7,48.2,29.97,WSW,247,2.0,3.0,95,0.00,,,0.09,WeatherTracker,2013-01-31 00:05:00,
2013-01-30 16:10:00,48.6,48.2,29.97,WSW,247,2.0,3.0,95,0.00,,,0.09,WeatherTracker,2013-01-31 00:10:00,
2013-01-30 16:15:00,48.4,48.2,29.97,WSW,247,2.0,3.0,96,0.00,,,0.09,WeatherTracker,2013-01-31 00:15:00,
2013-01-30 16:20:00,48.2,48.2,29.97,WSW,247,2.0,3.0,96,0.00,,,0.09,WeatherTracker,2013-01-31 00:20:00,
2013-01-30 16:25:00,48.0,48.2,29.97,NW,315,3.0,3.0,97,0.00,,,0.09,WeatherTracker,2013-01-31 00:25:00,
2013-01-30 16:30:00,47.8,48.2,29.97,NW,315,2.0,3.0,97,0.00,,,0.09,WeatherTracker,2013-01-31 00:30:00,
2013-01-30 16:35:00,47.7,48.2,29.97,North,0,3.0,3.0,98,0.00,,,0.09,WeatherTracker,2013-01-31 00:35:00,
2013-01-30 16:40:00,47.7,48.2,29.97,NNW,337,2.0,3.0,98,0.00,,,0.09,WeatherTracker,2013-01-31 00:40:00,
2013-01-30 16:45:00,47.5,48.2,29.97,WSW,247,3.0,3.0,98,0.00,,,0.09,WeatherTracker,2013-01-31 00:45:00,
2013-01-30 16:50:00,47.5,48.2,29.97,WSW,247,3.0,3.0,98,0.00,,,0.09,WeatherTracker,2013-01-31 00:50:00,
2013-01-30 16:55:00,47.5,48.2,29.97,NNW,337,3.0,3.0,98,0.00,,,0.09,WeatherTracker,2013-01-31 00:55:00,
2013-01-30 17:00:00,47.5,48.2,29.97,WNW,292,3.0,3.0,98,0.00,,,0.09,WeatherTracker,2013-01-31 01:00:00,
2013-01-30 17:05:00,47.3,48.2,29.97,NNW,337,3.0,3.0,98,0.00,,,0.09,WeatherTracker,2013-01-31 01:05:00,
2013-01-30 17:10:00,47.3,48.2,29.97,WNW,292,3.0,3.0,98,0.00,,,0.09,WeatherTracker,2013-01-31 01:10:00,
2013-01-30 17:15:00,47.3,48.2,29.97,NNW,337,4.0,4.0,98,0.00,,,0.09,WeatherTracker,2013-01-31 01:15:00,
2013-01-30 17:20:00,47.3,48.2,30.00,NNW,337,4.0,4.0,98,0.00,,,0.09,WeatherTracker,2013-01-31 01:20:00,
2013-01-30 17:25:00,47.3,48.2,30.00,SSW,202,3.0,3.0,98,0.00,,,0.09,WeatherTracker,2013-01-31 01:25:00,
2013-01-30 17:30:00,47.3,48.2,30.00,NNW,337,3.0,4.0,98,0.00,,,0.09,WeatherTracker,2013-01-31 01:30:00,
2013-01-30 17:35:00,47.3,48.2,29.97,NNW,337,4.0,4.0,98,0.00,,,0.09,WeatherTracker,2013-01-31 01:35:00,
2013-01-30 17:40:00,47.1,48.2,29.97,WNW,292,4.0,4.0,98,0.00,,,0.09,WeatherTracker,2013-01-31 01:40:00,
2013-01-30 17:45:00,47.1,48.2,29.97,WSW,247,4.0,4.0,98,0.00,,,0.09,WeatherTracker,2013-01-31 01:45:00,
2013-01-30 17:50:00,47.1,48.2,29.97,NW,315,4.0,5.0,98,0.00,,,0.09,WeatherTracker,2013-01-31 01:50:00,
2013-01-30 17:55:00,47.1,48.2,29.97,WNW,292,3.0,3.0,98,0.00,,,0.09,WeatherTracker,2013-01-31 01:55:00,
2013-01-30 18:00:00,47.1,48.2,29.97,WNW,292,4.0,4.0,98,0.00,,,0.09,WeatherTracker,2013-01-31 02:00:00,
2013-01-30 18:05:00,47.1,48.2,29.97,WNW,292,3.0,3.0,98,0.00,,,0.09,WeatherTracker,2013-01-31 02:05:00,
2013-01-30 18:10:00,47.1,48.2,29.97,WSW,247,2.0,3.0,98,0.00,,,0.09,WeatherTracker,2013-01-31 02:10:00,
2013-01-30 18:15:00,47.1,48.2,29.97,WNW,292,3.0,3.0,98,0.00,,,0.09,WeatherTracker,2013-01-31 02:15:00,
2013-01-30 18:25:00,46.9,48.2,29.97,WNW,292,1.0,3.0,98,0.00,,,0.09,WeatherTracker,2013-01-31 02:25:00,
2013-01-30 18:30:00,46.9,48.2,29.97,NW,315,3.0,3.0,98,0.00,,,0.09,WeatherTracker,2013-01-31 02:30:00,
2013-01-30 18:35:00,46.9,48.2,29.97,WNW,292,2.0,3.0,98,0.00,,,0.09,WeatherTracker,2013-01-31 02:35:00,
2013-01-30 18:40:00,47.1,48.2,29.97,WSW,247,3.0,0.0,98,0.00,,,0.09,WeatherTracker,2013-01-31 02:40:00,
2013-01-30 18:45:00,47.1,48.2,29.97,WNW,292,2.0,2.0,98,0.00,,,0.09,WeatherTracker,2013-01-31 02:45:00,
2013-01-30 18:50:00,47.1,48.2,29.97,WSW,247,0.0,0.0,98,0.00,,,0.09,WeatherTracker,2013-01-31 02:50:00,
2013-01-30 18:55:00,47.1,48.2,29.97,WNW,292,4.0,4.0,98,0.00,,,0.09,WeatherTracker,2013-01-31 02:55:00,
2013-01-30 19:00:00,46.9,48.2,29.97,NNW,337,0.0,0.0,98,0.00,,,0.09,WeatherTracker,2013-01-31 03:00:00,
2013-01-30 19:05:00,46.9,48.2,29.97,WNW,292,3.0,3.0,98,0.00,,,0.09,WeatherTracker,2013-01-31 03:05:00,
2013-01-30 19:10:00,46.9,48.2,29.97,NW,315,2.0,3.0,98,0.00,,,0.09,WeatherTracker,2013-01-31 03:10:00,
2013-01-30 19:15:00,46.9,48.2,29.97,NNW,337,2.0,2.0,98,0.00,,,0.09,WeatherTracker,2013-01-31 03:15:00,
2013-01-30 19:20:00,46.9,48.2,29.97,WNW,292,3.0,4.0,98,0.00,,,0.09,WeatherTracker,2013-01-31 03:20:00,
2013-01-30 19:25:00,46.9,48.2,29.97,WNW,292,2.0,2.0,98,0.00,,,0.09,WeatherTracker,2013-01-31 03:25:00,
2013-01-30 19:30:00,46.9,48.2,29.97,WSW,247,2.0,5.0,98,0.00,,,0.09,WeatherTracker,2013-01-31 03:30:00,
2013-01-30 19:35:00,46.9,48.2,29.97,ENE,67,4.0,4.0,98,0.00,,,0.09,WeatherTracker,2013-01-31 03:35:00,
2013-01-30 19:40:00,46.8,46.4,29.97,West,270,1.0,1.0,98,0.00,,,0.09,WeatherTracker,2013-01-31 03:40:00,
2013-01-30 19:50:00,46.8,46.4,29.97,WSW,247,2.0,2.0,98,0.00,,,0.09,WeatherTracker,2013-01-31 03:50:00,
2013-01-30 19:55:00,46.8,46.4,29.97,WNW,292,2.0,3.0,98,0.00,,,0.09,WeatherTracker,2013-01-31 03:55:00,
2013-01-30 20:05:00,46.8,46.4,29.97,WNW,292,2.0,3.0,98,0.00,,,0.09,WeatherTracker,2013-01-31 04:05:00,
2013-01-30 20:10:00,46.6,46.4,29.97,NW,315,1.0,2.0,98,0.00,,,0.09,WeatherTracker,2013-01-31 04:10:00,
2013-01-30 20:15:00,46.6,46.4,29.97,NW,315,2.0,2.0,98,0.00,,,0.09,WeatherTracker,2013-01-31 04:15:00,
2013-01-30 20:20:00,46.6,46.4,29.97,WNW,292,2.0,4.0,98,0.04,,,0.13,WeatherTracker,2013-01-31 04:20:00,
2013-01-30 20:25:00,46.6,46.4,29.97,NNW,337,3.0,3.0,98,0.04,,,0.13,WeatherTracker,2013-01-31 04:25:00,
2013-01-30 20:30:00,46.6,46.4,29.97,NW,315,3.0,3.0,98,0.04,,,0.13,WeatherTracker,2013-01-31 04:30:00,
2013-01-30 20:35:00,46.6,46.4,29.97,NNE,22,2.0,2.0,98,0.04,,,0.13,WeatherTracker,2013-01-31 04:35:00,
2013-01-30 20:40:00,46.4,46.4,29.97,WNW,292,1.0,0.0,98,0.04,,,0.13,WeatherTracker,2013-01-31 04:40:00,
2013-01-30 20:45:00,46.4,46.4,29.97,WNW,292,1.0,1.0,98,0.04,,,0.13,WeatherTracker,2013-01-31 04:45:00,
2013-01-30 20:50:00,46.4,46.4,29.97,West,270,2.0,0.0,98,0.04,,,0.13,WeatherTracker,2013-01-31 04:50:00,
2013-01-30 20:55:00,46.4,46.4,29.97,NNW,337,1.0,2.0,98,0.04,,,0.13,WeatherTracker,2013-01-31 04:55:00,
2013-01-30 21:00:00,46.4,46.4,29.97,WSW,247,3.0,3.0,98,0.04,,,0.13,WeatherTracker,2013-01-31 05:00:00,
2013-01-30 21:05:00,46.4,46.4,29.97,WNW,292,1.0,1.0,98,0.04,,,0.13,WeatherTracker,2013-01-31 05:05:00,
2013-01-30 21:10:00,46.4,46.4,29.97,WSW,247,2.0,2.0,98,0.04,,,0.13,WeatherTracker,2013-01-31 05:10:00,
2013-01-30 21:15:00,46.4,46.4,29.97,WSW,247,0.0,0.0,98,0.04,,,0.13,WeatherTracker,2013-01-31 05:15:00,
2013-01-30 21:20:00,46.4,46.4,29.97,WNW,292,2.0,2.0,98,0.04,,,0.13,WeatherTracker,2013-01-31 05:20:00,
2013-01-30 21:25:00,46.4,46.4,29.97,WSW,247,0.0,0.0,98,0.00,,,0.13,WeatherTracker,2013-01-31 05:25:00,
2013-01-30 21:30:00,46.4,46.4,29.97,WNW,292,0.0,0.0,98,0.00,,,0.13,WeatherTracker,2013-01-31 05:30:00,
2013-01-30 21:35:00,46.4,46.4,29.97,WSW,247,0.0,0.0,98,0.00,,,0.13,WeatherTracker,2013-01-31 05:35:00,
2013-01-30 21:40:00,46.4,46.4,29.97,WNW,292,0.0,0.0,98,0.00,,,0.13,WeatherTracker,2013-01-31 05:40:00,
2013-01-30 21:45:00,46.4,46.4,29.97,NW,315,0.0,0.0,98,0.00,,,0.13,WeatherTracker,2013-01-31 05:45:00,
2013-01-30 21:50:00,46.4,46.4,29.97,WSW,247,0.0,0.0,98,0.00,,,0.13,WeatherTracker,2013-01-31 05:50:00,
2013-01-30 21:55:00,46.4,46.4,29.97,WSW,247,2.0,2.0,98,0.00,,,0.13,WeatherTracker,2013-01-31 05:55:00,
2013-01-30 22:00:00,46.4,46.4,29.97,WSW,247,0.0,0.0,98,0.00,,,0.13,WeatherTracker,2013-01-31 06:00:00,
2013-01-30 22:05:00,46.4,46.4,29.97,NW,315,0.0,0.0,98,0.00,,,0.13,WeatherTracker,2013-01-31 06:05:00,
2013-01-30 22:10:00,46.4,46.4,29.97,WNW,292,0.0,1.0,98,0.00,,,0.13,WeatherTracker,2013-01-31 06:10:00,
2013-01-30 22:20:00,46.4,46.4,29.97,West,270,1.0,0.0,98,0.00,,,0.13,WeatherTracker,2013-01-31 06:20:00,
2013-01-30 22:25:00,46.4,46.4,29.97,NW,315,1.0,2.0,98,0.00,,,0.13,WeatherTracker,2013-01-31 06:25:00,
2013-01-30 22:30:00,46.4,46.4,29.97,West,270,0.0,0.0,98,0.00,,,0.13,WeatherTracker,2013-01-31 06:30:00,
2013-01-30 22:35:00,46.4,46.4,29.97,WNW,292,0.0,0.0,98,0.00,,,0.13,WeatherTracker,2013-01-31 06:35:00,
2013-01-30 22:40:00,46.2,46.4,29.97,WNW,292,0.0,0.0,98,0.00,,,0.13,WeatherTracker,2013-01-31 06:40:00,
2013-01-30 22:45:00,46.2,46.4,29.97,WNW,292,0.0,0.0,98,0.00,,,0.13,WeatherTracker,2013-01-31 06:45:00,
2013-01-30 22:50:00,46.2,46.4,29.97,WSW,247,0.0,0.0,98,0.00,,,0.13,WeatherTracker,2013-01-31 06:50:00,
2013-01-30 22:55:00,46.2,46.4,29.97,WSW,247,0.0,0.0,98,0.00,,,0.13,WeatherTracker,2013-01-31 06:55:00,
2013-01-30 23:00:00,46.2,46.4,29.97,WSW,247,0.0,0.0,98,0.00,,,0.13,WeatherTracker,2013-01-31 07:00:00,
2013-01-30 23:05:00,46.2,46.4,29.97,WSW,247,0.0,0.0,98,0.00,,,0.13,WeatherTracker,2013-01-31 07:05:00,
2013-01-30 23:10:00,46.2,46.4,29.97,WSW,247,0.0,0.0,98,0.00,,,0.13,WeatherTracker,2013-01-31 07:10:00,
2013-01-30 23:15:00,46.2,46.4,29.97,WSW,247,0.0,0.0,98,0.00,,,0.13,WeatherTracker,2013-01-31 07:15:00,
2013-01-30 23:20:00,46.0,46.4,29.97,WSW,247,0.0,0.0,98,0.00,,,0.13,WeatherTracker,2013-01-31 07:20:00,
2013-01-30 23:25:00,46.0,46.4,29.97,WSW,247,0.0,0.0,98,0.00,,,0.13,WeatherTracker,2013-01-31 07:25:00,
2013-01-30 23:30:00,46.0,46.4,29.97,SSW,202,1.0,1.0,98,0.00,,,0.13,WeatherTracker,2013-01-31 07:30:00,
2013-01-30 23:35:00,46.0,46.4,29.97,SSW,202,0.0,0.0,98,0.00,,,0.13,WeatherTracker,2013-01-31 07:35:00,
2013-01-30 23:40:00,46.0,46.4,29.97,SSW,202,0.0,0.0,98,0.00,,,0.13,WeatherTracker,2013-01-31 07:40:00,
2013-01-30 23:45:00,46.0,46.4,29.97,SSW,202,0.0,0.0,98,0.00,,,0.13,WeatherTracker,2013-01-31 07:45:00,
2013-01-30 23:50:00,46.0,46.4,29.97,SSW,202,0.0,0.0,98,0.00,,,0.13,WeatherTracker,2013-01-31 07:50:00,
2013-01-30 23:55:00,45.9,46.4,29.97,SSW,202,0.0,0.0,98,0.00,,,0.13,WeatherTracker,2013-01-31 07:55:00,